Location: Unspecified
(33.1030°N, 0.0000°E)
Time: 05:36:44
(UTC+00:00)

Cosmos 1331 Rocket - Visible Passes

Search period start: 04 April 2026 00:00
Search period end: 14 April 2026 00:00
Orbit: 745 x 773 km, 74.0° (Epoch: 29 March)

Date Brightness Start Highest point End Pass type
(mag) Time Alt. Az. Time Alt. Az. Time Alt. Az.
4 Apr 6.9 01:51:24 11° ENE 01:51:24 11° ENE 01:51:50 10° NE visible
4 Apr 5.1 03:31:28 33° NNW 03:31:28 33° NNW 03:34:51 10° N visible
5 Apr 5.5 02:52:35 31° NNE 02:52:35 31° NNE 02:55:16 10° NNE visible
6 Apr 6.3 02:13:39 20° NE 02:13:39 20° NE 02:15:18 10° NNE visible
6 Apr 5.9 03:53:43 15° NW 03:53:43 15° NW 03:55:37 10° NNW visible
7 Apr 7.0 01:34:40 11° NE 01:34:40 11° NE 01:34:52 10° NE visible
7 Apr 5.8 03:14:44 21° NNW 03:14:44 21° NNW 03:16:52 10° N visible
8 Apr 6.1 02:35:43 21° N 02:35:43 21° N 02:37:30 10° N visible
9 Apr 6.6 01:56:40 16° NNE 01:56:40 16° NNE 01:57:45 10° NNE visible
10 Apr 7.1 01:17:36 10° NE 01:17:36 10° NE 01:17:37 10° NE visible
10 Apr 6.3 02:57:39 14° NNW 02:57:39 14° NNW 02:58:42 10° NNW visible
11 Apr 6.4 02:18:33 16° N 02:18:33 16° N 02:19:37 10° N visible
12 Apr 6.7 01:39:25 14° NNE 01:39:25 14° NNE 01:40:05 10° NNE visible
